Regional Weather Roundup
Issued by NWS Little Rock, AR

Home | Current Version | Previous Version | Graphics & Text | Print | Product List | Glossary Off
Versions: 1 2 3 4 5 6 7 8 9 10 11 12 13 14 15 16 17 18 19 20 21 22 23 24 25 26 27 28 29 30 31 32 33 34 35 36 37 38 39 40 41 42 43 44 45 46 47 48 49 50

000
ASUS44 KLZK 301905
RWRLZK

WEATHER ROUNDUP FOR ARKANSAS
NATIONAL WEATHER SERVICE LITTLE ROCK AR
200 PM CDT SAT AUG 30 2014

NOTE: "FAIR" INDICATES FEW OR NO CLOUDS BELOW 12,000 FEET WITH NO
SIGNIFICANT WEATHER AND/OR OBSTRUCTIONS TO VISIBILITY.

ARZ001-003-010-029-302000-
NORTHWEST ARKANSAS

CITY           SKY/WX    TMP DP  RH WIND       PRES   REMARKS
FAYETTEVILLE   MOSUNNY   79  70  74 S8        29.99F
FORT SMITH     PTSUNNY   85  70  60 NE8       29.95F HX  89
HARRISON       PTSUNNY   80  69  69 W9        29.99F
BENTONVILLE    PTSUNNY   86  72  62 SW9       29.99F HX  92
ROGERS         MOSUNNY   85  69  58 S10G18    29.99F HX  89
HIGHFILL       PTSUNNY   88  68  51 SW9       29.98F HX  91
$$

ARZ004-005-016-302000-
NORTH CENTRAL ARKANSAS

CITY           SKY/WX    TMP DP  RH WIND       PRES   REMARKS
BATESVILLE     CLOUDY    84  72  65 S8        30.00S HX  89
FLIPPIN        MOSUNNY   82  68  61 SE8       29.98F HX  85
MTN HOME       PTSUNNY   83  71  67 VRB6      29.98F THUNDER HX  87
$$

ARZ040-041-302000-
WEST CENTRAL ARKANSAS

CITY           SKY/WX    TMP DP  RH WIND       PRES   REMARKS
MENA           CLOUDY    86  70  58 CALM      29.99F HX  90
MOUNT IDA      LGT RAIN  81  74  79 VRB3      29.97F HX  86
$$

ARZ009-017-025-026-028-302000-
NORTHEAST ARKANSAS

CITY           SKY/WX    TMP DP  RH WIND       PRES   REMARKS
CORNING          N/A     82  75  78 SW8       29.99F HX  89
JONESBORO      CLOUDY    79  72  79 S12       30.00F
NEWPORT        CLOUDY    84  73  69 S13       30.01F HX  90
WALNUT RIDGE   CLOUDY    82  72  69 S10       29.98F HX  87
BLYTHEVILLE    LGT RAIN  76  72  87 SW5       30.03F
$$

ARZ022-023-033-042-044-302000-
CENTRAL ARKANSAS

CITY           SKY/WX    TMP DP  RH WIND       PRES   REMARKS
LITTLE ROCK    PTSUNNY   86  71  60 SE10      29.99F HX  91
N LITTLE ROCK  PTSUNNY   84  72  67 SE8G18    29.99F HX  89
JACKSONVILLE   PTSUNNY   84  72  66 SE5       30.00F HX  90
SEARCY         CLOUDY    85  72  65 MISG      30.01F HX  91
HOT SPRINGS      N/A     86  70  58 VRB3      29.98F HX  90
RUSSELLVILLE   MOSUNNY   87  71  58 CALM      29.97F HX  93
CLINTON        PTSUNNY   84  73  70 S8        29.99F HX  91
$$

ARZ036-302000-
EAST ARKANSAS

CITY           SKY/WX    TMP DP  RH WIND       PRES   REMARKS
WEST MEMPHIS   CLOUDY    76  75  97 SW3       30.02F
$$

ARZ050-053-066-070-073-302000-
SOUTHWEST ARKANSAS

CITY           SKY/WX    TMP DP  RH WIND       PRES   REMARKS
ARKADELPHIA    LGT RAIN  79  75  87 W6        29.98F FOG
CAMDEN         LGT RAIN  79  72  78 SE8       29.98F
TEXARKANA      PTSUNNY   89  70  53 SE10      29.95F HX  94
EL DORADO      LGT RAIN  76  73  91 E7        29.98F
DE QUEEN       MOSUNNY   87  72  60 CALM      29.94F HX  93
$$

ARZ056-057-069-302000-
SOUTHEAST ARKANSAS

CITY           SKY/WX    TMP DP  RH WIND       PRES   REMARKS
PINE BLUFF     LGT RAIN  78  74  87 S8        30.01F
STUTTGART      CLOUDY    82  73  74 S12       30.02F HX  88
MONTICELLO     LGT RAIN  77  74  90 SE7       30.01F

$$




USA.gov is the U.S. government's official web portal to all federal, state and local government web resources and services.